Theta_e
344 342 343 344 343 345 346 348 348 348 349 347 345 347 345 346 346 346 347 349 348 350 349 350 348 351 353 352 353 351 347 349 348 346 344 345 344 344 344 344 345 347 349
343 343 343 343 344 344 346 347 350 350 348 347 347 346 346 345 345 347 348 349 349 350 352 347 351 349 351 354 356 354 355 349 350 353 348 345 347 344 344 345 346 349 350
343 344 343 343 344 344 346 347 348 350 350 349 348 349 347 349 347 348 348 348 350 350 353 350 352 346 351 355 351 353 350 354 349 346 352 352 343 338 347 350 349 350 348
343 343 343 344 343 346 345 347 350 350 350 346 349 348 347 345 344 346 347 351 349 350 350 351 352 351 354 351 352 353 352 346 354 350 349 346 349 347 346 347 346 347 345
342 343 343 343 344 345 346 347 349 351 350 346 350 349 348 350 346 348 350 348 352 352 350 351 352 353 350 353 349 352 352 354 352 351 350 352 348 347 346 342 343 348 345
342 342 342 344 344 345 346 347 351 351 351 350 346 347 349 348 348 346 349 349 348 351 350 352 351 352 352 351 353 356 352 351 351 348 350 347 347 345 345 345 344 343 346
343 341 343 344 345 346 346 348 351 352 351 350 350 350 349 350 351 350 348 348 349 347 350 347 352 350 350 346 351 354 349 353 351 356 350 347 344 346 345 344 343 342 342
344 341 342 343 345 346 347 348 351 354 352 350 350 350 351 350 349 351 349 348 349 348 351 353 351 351 351 351 352 350 352 351 352 354 353 351 348 345 345 343 343 342 340
345 342 342 343 345 346 347 349 351 354 353 350 349 350 350 351 349 349 351 350 348 349 352 351 352 352 351 351 351 350 350 351 353 351 351 350 347 345 346 345 345 344 342
345 344 342 343 344 346 347 349 351 353 353 350 349 348 350 351 352 354 351 353 353 353 346 350 352 352 352 352 353 350 350 352 349 349 349 350 346 347 347 346 345 347 344
348 346 341 343 345 345 347 348 350 352 353 350 348 348 349 351 352 351 352 352 352 353 353 351 353 352 353 351 350 348 350 351 353 352 350 351 351 349 345 350 346 345 345
348 346 343 343 345 346 347 348 349 351 352 351 350 349 349 350 350 352 353 353 353 353 353 351 353 353 353 353 352 351 350 351 350 351 350 351 350 351 351 348 345 345 348
346 347 348 347 346 347 349 348 350 350 351 352 351 350 349 349 349 350 351 352 353 353 352 354 352 353 352 351 352 351 351 351 351 350 349 349 351 350 349 350 352 351 351
346 347 348 349 347 349 349 351 350 351 351 352 352 352 352 350 350 350 351 351 353 352 352 352 352 351 352 350 351 351 352 352 353 351 351 351 352 351 347 345 344 344 347
347 351 349 349 348 349 352 352 353 352 353 353 353 353 354 354 353 352 353 352 353 351 353 352 352 351 351 350 351 352 351 351 351 352 352 351 351 349 349 347 348 348 348
340 347 348 347 347 343 346 352 353 353 354 350 351 354 355 355 350 347 345 345 347 346 345 346 348 348 349 348 348 347 347 350 350 349 349 350 349 347 343 342 344 344 343
339 341 345 344 346 348 347 351 352 353 346 351 346 345 352 352 345 344 344 345 345 346 349 345 346 346 346 347 345 345 344 345 349 349 348 348 351 349 349 342 342 344 344
334 338 342 342 342 343 344 344 344 345 349 350 348 351 347 345 346 345 349 346 344 345 346 347 345 345 342 343 342 340 345 344 346 344 346 348 348 350 349 346 348 349 346
336 337 339 342 342 342 343 342 343 349 350 348 350 350 351 349 349 349 348 347 347 348 347 346 346 345 344 342 342 343 344 344 344 343 342 342 342 343 343 342 345 345 345
335 334 338 339 340 342 341 343 345 345 346 346 347 348 346 344 342 340 339 338 339 343 344 346 345 344 343 342 343 343 343 342 342 342 342 341 341 342 342 342 343 342 343
335 335 336 338 341 343 344 344 344 344 344 345 345 343 343 346 345 341 341 342 345 344 343 344 345 343 342 342 344 343 341 340 342 342 338 338 339 337 337 337 336 336 338
335 335 335 334 338 342 343 343 343 342 342 342 343 342 340 337 338 341 341 342 342 343 343 343 341 339 340 338 339 336 333 338 338 339 338 338 338 337 336 335 335 335 334
332 332 332 333 335 338 340 342 342 341 339 337 336 338 340 339 338 340 338 338 338 337 338 339 337 335 336 338 338 338 336 334 338 337 337 337 337 337 335 335 335 334 333
331 332 331 331 330 333 337 338 339 340 340 340 339 340 340 340 338 337 338 337 336 336 336 336 337 336 336 336 335 335 336 336 335 335 335 335 333 331 329 328 328 328 323
329 330 329 329 329 330 331 334 336 337 337 338 337 338 338 339 338 337 338 337 335 336 337 336 335 335 335 334 333 333 332 332 332 333 332 327 323 323 323 320 318 317 319
327 326 327 327 327 326 326 326 329 331 332 333 334 335 335 334 334 333 333 332 332 331 331 331 331 330 330 328 328 327 326 326 327 326 327 327 324 322 318 317 317 316 314
Wind_Speed
17 16 17 17 16 15 15 15 15 13 13 11 9 7 9 8 8 6 6 5 4 4 6 1 6 13 11 13 4 2 3 1 2 4 5 7 9 9 7 5 4 5 8
20 17 17 18 18 17 17 16 13 13 15 11 10 7 10 7 7 7 5 5 5 5 2 5 3 6 7 4 1 3 0 2 3 13 4 11 10 9 9 6 4 5 7
22 21 18 19 18 18 18 17 16 13 14 14 10 6 8 8 8 7 6 7 5 3 3 2 4 2 4 5 1 3 7 11 0 6 12 17 4 16 1 4 4 3 5
22 22 20 19 19 17 17 18 17 17 13 16 14 12 10 9 8 6 6 5 7 5 4 4 2 3 3 4 3 3 4 8 10 3 4 10 8 12 8 3 3 6 4
24 24 22 21 19 18 17 17 17 18 14 15 12 14 13 6 9 6 7 8 6 7 5 6 5 5 2 4 7 5 7 0 8 6 7 4 6 7 7 12 11 3 5
24 23 22 21 20 19 17 17 17 18 18 15 19 17 12 9 6 9 5 6 5 6 8 7 5 6 6 6 4 5 6 8 6 7 4 8 9 8 10 12 10 8 9
25 25 24 23 21 21 18 18 18 18 18 18 16 14 15 11 7 6 7 9 9 6 11 7 9 6 8 9 7 7 9 8 7 7 8 7 8 8 9 10 13 13 11
24 26 25 23 22 20 19 18 19 18 18 18 18 16 15 13 11 10 10 10 7 7 8 5 7 8 8 8 8 8 8 9 7 7 9 10 9 9 9 10 11 12 15
27 26 26 24 21 21 20 20 19 18 17 18 19 19 16 15 13 10 10 11 9 11 6 7 9 10 9 10 10 9 9 10 10 9 10 8 9 10 9 10 10 10 13
32 27 27 25 23 21 21 19 18 17 16 17 18 19 19 17 15 9 12 8 10 7 13 10 10 12 11 11 13 11 12 11 9 9 11 10 10 11 11 9 10 10 10
35 24 26 24 23 21 21 19 19 18 16 16 16 17 18 18 16 14 14 12 11 11 11 11 10 10 11 12 12 12 14 11 10 11 14 11 12 11 10 12 8 10 10
11 22 19 24 22 22 19 20 19 19 17 15 16 16 17 17 16 15 14 12 12 12 12 12 10 10 10 11 13 13 12 13 11 11 13 13 11 13 13 10 13 11 12
5 12 17 17 20 21 21 19 19 19 17 17 16 16 16 16 15 15 14 14 14 14 13 13 14 13 11 10 11 13 12 13 14 13 14 14 12 17 14 15 11 10 11
11 19 21 16 22 20 19 19 18 19 17 17 17 16 15 14 14 14 14 13 13 14 14 14 16 14 13 12 11 11 12 14 14 14 15 14 14 18 17 15 13 14 13
4 1 7 6 10 16 16 17 17 16 19 19 18 17 15 14 13 13 13 12 13 13 13 14 15 16 12 13 14 13 13 15 13 14 16 15 16 18 19 16 13 14 16
7 10 9 4 3 11 19 13 13 17 15 26 22 16 16 15 20 19 19 19 18 18 18 18 18 17 14 19 19 20 17 14 15 15 16 16 18 19 16 18 16 15 14
6 3 8 10 8 14 17 15 11 7 18 16 19 23 20 19 22 19 20 20 22 22 22 23 22 20 18 19 22 23 21 17 15 15 14 14 15 19 17 15 17 17 17
5 6 7 9 10 9 10 11 11 9 10 12 17 14 20 23 25 22 20 21 22 24 25 26 27 30 29 27 25 20 21 20 19 19 17 15 15 17 17 14 9 8 13
4 4 6 5 8 11 13 13 9 7 7 10 12 14 15 13 14 13 16 18 20 20 22 25 24 27 29 27 24 23 21 20 22 24 23 20 21 20 19 17 13 12 14
5 4 7 5 2 3 11 8 8 8 8 8 10 12 10 11 10 13 15 14 16 18 20 23 23 27 26 29 27 24 23 22 21 24 23 20 19 16 13 14 15 12 9
6 8 7 7 6 8 12 13 11 13 10 6 4 4 4 3 5 10 10 11 11 10 10 14 19 20 21 25 24 18 19 20 21 22 20 16 14 10 9 10 12 12 14
6 8 9 8 7 7 7 8 6 5 5 8 9 10 7 5 3 4 3 5 6 5 7 13 12 8 12 11 10 11 10 9 14 17 17 18 19 21 17 15 15 16 15
7 7 8 8 7 4 4 4 4 4 5 6 7 4 4 2 3 5 3 1 2 3 2 3 0 1 2 2 4 7 8 9 10 10 11 13 13 12 14 15 15 15 12
8 7 7 7 8 8 6 4 2 4 4 3 3 6 5 4 3 3 2 1 0 1 2 2 2 0 2 4 6 7 8 9 10 10 8 8 8 6 6 4 3 2 4
7 9 5 6 6 7 9 8 7 4 4 3 4 4 4 4 1 1 1 1 0 1 3 3 4 5 6 8 8 7 7 8 8 13 9 7 5 4 3 2 4 7 6
9 8 8 7 7 8 9 8 9 9 11 9 8 8 6 6 6 6 5 5 5 4 3 2 1 2 1 1 1 2 2 3 3 2 4 5 5 4 1 2 4 3 1
Wind_Direction
170 166 171 168 167 169 168 168 172 167 171 171 168 162 165 167 172 172 186 179 149 196 190 186 312 13 53 95 103 128 111 199 248 241 240 247 246 240 239 248 269 298 315
172 168 174 176 177 178 179 180 179 186 172 176 194 183 167 168 177 196 171 165 189 182 205 182 312 265 88 91 61 227 193 248 268 277 273 243 213 263 227 224 251 289 307
178 173 181 177 182 182 187 191 193 197 198 189 204 203 181 167 168 189 179 194 195 202 223 229 247 175 101 160 113 285 292 297 8 292 308 7 84 266 57 16 268 306 324
188 178 184 187 185 183 189 191 196 204 205 191 188 189 181 183 184 190 191 182 187 203 223 229 243 221 229 272 310 299 274 300 319 299 263 325 344 323 344 243 320 39 2
190 181 189 189 188 185 188 191 194 203 200 200 191 186 209 212 165 179 198 189 229 201 211 235 234 244 218 265 257 282 277 303 293 321 335 297 299 303 331 321 334 23 37
188 190 188 185 192 187 189 192 194 199 196 204 199 189 207 214 191 199 207 209 222 234 209 221 239 235 238 289 277 260 286 266 250 261 331 299 316 317 319 321 324 333 319
194 190 189 189 192 189 192 194 196 199 197 206 204 206 207 218 221 209 216 214 213 216 230 247 240 258 289 249 245 280 242 264 262 269 274 314 288 309 307 305 301 314 292
219 196 194 195 193 195 194 200 199 201 202 202 208 210 203 206 213 224 221 223 232 235 204 239 252 260 259 263 274 276 281 267 262 280 279 275 287 286 291 294 305 305 301
205 210 195 198 195 200 199 202 201 204 207 208 209 209 211 212 203 231 228 241 231 269 256 248 260 262 255 257 252 262 258 273 275 271 276 290 269 280 274 283 282 290 299
201 206 195 196 196 201 201 205 205 206 207 209 212 212 212 217 216 225 227 223 249 220 245 243 256 271 259 253 247 250 265 249 262 262 269 258 270 276 275 266 277 275 280
208 201 200 195 194 200 200 202 206 206 206 207 210 210 212 213 221 224 231 233 234 247 264 269 257 245 256 270 260 244 242 255 269 265 267 266 267 260 266 289 268 264 275
183 193 197 200 198 198 209 199 205 207 209 207 207 210 211 215 223 227 226 235 240 247 257 262 252 245 255 255 265 264 248 261 258 256 265 263 262 265 274 275 279 277 271
313 221 207 208 198 203 205 213 204 209 206 206 210 210 215 218 223 227 234 239 245 249 251 258 259 254 257 259 257 263 266 254 262 263 263 257 255 257 250 256 267 257 260
252 241 202 203 208 209 211 211 210 208 208 207 210 214 215 219 225 233 236 239 246 250 251 254 261 254 262 266 261 258 259 257 250 252 260 267 264 271 269 260 253 256 259
81 305 211 191 194 207 209 206 207 207 206 208 213 213 214 216 224 232 234 243 249 247 254 261 255 256 259 271 266 263 271 265 258 255 256 261 267 257 257 257 258 262 258
72 100 149 151 215 203 205 209 213 210 224 217 210 208 209 218 229 233 243 253 256 265 264 259 259 259 257 261 262 262 263 265 265 265 259 255 255 257 254 254 255 261 267
69 125 154 166 175 181 188 169 171 207 218 226 227 218 214 232 244 251 253 260 258 266 256 267 262 261 260 261 262 261 263 263 266 268 268 265 260 264 259 258 256 256 256
56 76 134 162 188 200 215 221 202 225 241 236 230 237 230 234 243 249 248 254 262 259 259 256 256 260 261 265 263 261 255 260 265 265 259 261 257 253 242 243 244 241 244
81 57 80 139 206 224 208 221 215 208 221 230 225 225 224 233 240 249 253 255 257 263 262 259 260 260 260 252 248 251 251 257 264 265 267 267 260 260 257 244 239 235 262
74 59 59 62 111 198 184 200 197 191 199 201 197 199 212 225 246 263 269 276 278 270 264 265 260 254 254 246 251 247 252 257 259 271 264 253 248 251 247 233 237 243 249
75 65 61 67 86 132 150 171 175 175 165 146 175 220 217 224 245 262 268 265 264 266 256 262 258 255 258 256 248 246 245 253 253 251 240 230 219 224 233 247 254 241 248
85 71 57 57 68 102 134 160 166 153 158 184 210 218 233 235 292 299 256 255 240 256 269 274 256 251 236 239 225 251 256 273 253 254 256 249 256 253 260 270 271 262 258
113 84 65 46 57 81 125 143 158 179 202 217 216 214 201 192 115 102 114 92 85 57 74 161 335 195 207 271 243 255 256 255 264 255 258 279 271 262 270 262 255 253 239
125 117 89 80 63 67 76 84 127 193 194 187 200 211 228 208 159 187 170 63 125 113 122 80 84 58 300 285 280 275 261 257 256 254 255 261 281 283 280 290 285 279 214
125 111 100 93 80 80 76 78 90 99 103 138 160 145 160 167 172 267 231 336 358 79 201 253 247 247 287 283 274 286 288 273 260 260 221 228 225 236 243 179 131 98 65
116 118 126 118 103 88 86 96 105 105 99 99 105 105 111 107 106 94 93 95 91 94 109 115 82 45 105 174 42 44 15 334 329 331 276 263 249 204 126 352 311 277 244